sat.trackr.live / text

‹ back to catalog

CHUANGXIN 19 (CX-19)

NORAD 58505 · 2023-190A

PAYLOAD ACTIVE UNKNOWN

§ Identity

Operator
Country
PRC
Launch date
2023-12-05
Launch site
SCSLA
Launch vehicle
Mass (kg)
RCS (m²)

External: N2YO · Heavens-Above · Gunter

§ Orbital elements

Epoch: 2026-05-25T04:05:46.382208Z

Period
107.50 min
Inclination
86.5033°
Eccentricity
0.0002018
Mean motion
13.39550388 rev/d
Perigee alt
1,109.4 km
Apogee alt
1,112.5 km
Semi-major
7,489.1 km
B*
5.4710e-5
RAAN
340.5484°
Arg perigee
100.3930°
Mean anomaly
259.7440°
Rev number
12,161

§ Raw data

CHUANGXIN 19 (CX-19)1 58505U 23190A   26145.17067572  .00000045  00000+0  54710-4 0  99902 58505  86.5033 340.5484 0002018 100.3930 259.7440 13.39550388121612

JSON: /api/v1/satellites/58505 · /tle

For live sub-satellite position, see the globe view (requires WebGL).

§ Visibility from observer

Set your observer location to see the next 7 days of passes ≥ 10°. The values pass through the URL so the page stays shareable.

No JS? Fill the form by hand. The geolocation button needs JavaScript.